2023/01/29 00:00:00,48.3,-4.6
2023/01/29 00:10:00,48.3,-4.8
2023/01/29 00:20:00,48.3,-4.5
2023/01/29 00:30:00,48.2,-4.8
2023/01/29 00:40:00,48.2,-4.9
2023/01/29 00:50:00,48.1,-4.8
2023/01/29 01:00:00,48.0,-5.0
2023/01/29 01:10:00,47.9,-4.9
2023/01/29 01:20:00,47.9,-5.1
2023/01/29 01:30:00,47.9,-4.8
2023/01/29 01:40:00,47.8,-4.6
2023/01/29 01:50:00,47.7,-4.3
2023/01/29 02:00:00,47.7,-4.8
2023/01/29 02:10:00,47.6,-5.0
2023/01/29 02:20:00,47.5,-5.3
2023/01/29 02:30:00,47.5,-5.1
2023/01/29 02:40:00,47.4,-5.3
2023/01/29 02:50:00,47.4,-4.8
2023/01/29 03:00:00,47.3,-5.2
2023/01/29 03:10:00,47.3,-5.3
2023/01/29 03:20:00,47.2,-5.0
2023/01/29 03:30:00,47.1,-5.0
2023/01/29 03:40:00,47.0,-5.1
2023/01/29 03:50:00,47.0,-5.3
2023/01/29 04:00:00,47.0,-5.3
2023/01/29 04:10:00,47.0,-5.3
2023/01/29 04:20:00,47.0,-5.7
2023/01/29 04:30:00,47.0,-6.0
2023/01/29 04:40:00,46.9,-5.9
2023/01/29 04:50:00,46.8,-5.6
2023/01/29 05:00:00,46.8,-6.1
2023/01/29 05:10:00,46.8,-6.1
2023/01/29 05:20:00,46.7,-6.4
2023/01/29 05:30:00,46.7,-6.6
2023/01/29 05:40:00,46.6,-6.3
2023/01/29 05:50:00,46.6,-6.4
2023/01/29 06:00:00,46.5,-6.3
2023/01/29 06:10:00,46.6,-6.0
2023/01/29 06:20:00,46.5,-6.4
2023/01/29 06:30:00,46.4,-6.6
2023/01/29 06:40:00,46.3,-6.8
2023/01/29 06:50:00,46.2,-6.6
2023/01/29 07:00:00,46.0,-6.9
2023/01/29 07:10:00,46.0,-6.7
2023/01/29 07:20:00,46.1,-6.5
2023/01/29 07:30:00,46.1,-6.4
2023/01/29 07:40:00,46.2,-6.4
2023/01/29 07:50:00,46.2,-6.0
2023/01/29 08:00:00,46.1,-5.7
2023/01/29 08:10:00,46.1,-4.4
2023/01/29 08:20:00,46.0,-3.7
2023/01/29 08:30:00,45.9,-3.1
2023/01/29 08:40:00,45.7,-2.2
2023/01/29 08:50:00,45.7,-1.6
2023/01/29 09:00:00,45.7,-0.8
2023/01/29 09:10:00,45.6,-0.4
2023/01/29 09:20:00,45.6, 0.7
2023/01/29 09:30:00,45.4, 1.2
2023/01/29 09:40:00,45.3, 2.0
2023/01/29 09:50:00,45.2,-0.2
2023/01/29 10:00:00,45.1, 1.4
2023/01/29 10:10:00,45.3, 2.2
2023/01/29 10:20:00,45.0, 3.5
2023/01/29 10:30:00,44.8, 4.4
2023/01/29 10:40:00,44.7, 4.2
2023/01/29 10:50:00,44.8, 3.3
2023/01/29 11:00:00,44.6, 3.6
2023/01/29 11:10:00,44.7, 2.4
2023/01/29 11:20:00,44.5, 2.9
2023/01/29 11:30:00,44.4, 2.7
2023/01/29 11:40:00,44.5, 3.9
2023/01/29 11:50:00,44.5, 4.5
2023/01/29 12:00:00,44.4, 7.0
2023/01/29 12:10:00,44.3, 6.4
2023/01/29 12:20:00,44.2, 5.6
2023/01/29 12:30:00,44.1, 4.5
2023/01/29 12:40:00,44.0, 5.0
2023/01/29 12:50:00,43.9, 5.0
2023/01/29 13:00:00,43.7, 4.6
2023/01/29 13:10:00,43.6, 4.6
2023/01/29 13:20:00,43.5, 3.9
2023/01/29 13:30:00,43.5, 3.5
2023/01/29 13:40:00,43.6, 3.2
2023/01/29 13:50:00,43.5, 4.0
2023/01/29 14:00:00,43.5, 3.9
2023/01/29 14:10:00,43.4, 3.9
2023/01/29 14:20:00,43.4, 4.5
2023/01/29 14:30:00,43.3, 4.3
2023/01/29 14:40:00,43.2, 3.9
2023/01/29 14:50:00,43.2, 3.2
2023/01/29 15:00:00,43.2, 2.7
2023/01/29 15:10:00,43.1, 2.4
2023/01/29 15:20:00,43.0, 2.2
2023/01/29 15:30:00,42.9, 2.1
2023/01/29 15:40:00,42.9, 1.5
2023/01/29 15:50:00,43.0, 1.2
2023/01/29 16:00:00,43.0, 1.1
2023/01/29 16:10:00,43.1, 1.1
2023/01/29 16:20:00,43.1, 0.7
2023/01/29 16:30:00,43.1, 1.1
2023/01/29 16:40:00,43.2, 0.6
2023/01/29 16:50:00,43.2, 0.5
2023/01/29 17:00:00,43.0,-0.2
2023/01/29 17:10:00,42.9,-0.2
2023/01/29 17:20:00,42.8,-0.6
2023/01/29 17:30:00,42.7,-0.9
2023/01/29 17:40:00,42.6,-1.2
2023/01/29 17:50:00,42.6,-1.9
2023/01/29 18:00:00,42.5,-1.7
2023/01/29 18:10:00,42.4,-1.8
2023/01/29 18:20:00,42.3,-1.7
2023/01/29 18:30:00,42.2,-2.0
2023/01/29 18:40:00,42.3,-2.4
2023/01/29 18:50:00,42.4,-1.8
2023/01/29 19:00:00,42.5,-2.1
2023/01/29 19:10:00,42.5,-2.5
2023/01/29 19:20:00,42.5,-1.7
2023/01/29 19:30:00,42.5,-1.6
2023/01/29 19:40:00,42.5,-2.3
2023/01/29 19:50:00,42.4,-2.1
2023/01/29 20:00:00,42.4,-2.4
2023/01/29 20:10:00,42.3,-2.1
2023/01/29 20:20:00,42.3,-2.7
2023/01/29 20:30:00,42.4,-2.7
2023/01/29 20:40:00,42.3,-3.2
2023/01/29 20:50:00,42.3,-3.2
2023/01/29 21:00:00,42.3,-2.8
2023/01/29 21:10:00,42.3,-2.9
2023/01/29 21:20:00,42.2,-3.1
2023/01/29 21:30:00,42.1,-3.3
2023/01/29 21:40:00,42.1,-3.2
2023/01/29 21:50:00,42.0,-3.1
2023/01/29 22:00:00,42.0,-3.2
2023/01/29 22:10:00,42.0,-3.5
2023/01/29 22:20:00,42.1,-3.6
2023/01/29 22:30:00,42.1,-3.5
2023/01/29 22:40:00,42.1,-3.5
2023/01/29 22:50:00,42.1,-3.8
2023/01/29 23:00:00,42.0,-3.9
2023/01/29 23:10:00,41.9,-3.8
2023/01/29 23:20:00,41.8,-3.7
2023/01/29 23:30:00,41.7,-3.8
2023/01/29 23:40:00,41.7,-3.8
2023/01/29 23:50:00,41.6,-3.8
